When you browse on this site, cookies collect data to enhance your experience and personalize the content and advertising you see.
Visit our Privacy Policy to learn more. By continuing to use the site, you agree to this use of cookies and data.
  • In Hungary
  • List of Countries
  • For 7 days
  • Water Temperature
  • Weather Map
  • News
  • Weather Widgets
  • user-avatar
    Login

    Hourly Weather Salawaj

    Today, 6 December, Friday

    Time Temperature Precipitation Wind Pressure Humidity
    00:00 +15°C° 0 mm 1 mps 748 mmHg 83%
    01:00 +15°C° 0 mm 1 mps 748 mmHg 87%
    02:00 +15°C° 0 mm 1 mps 748 mmHg 84%
    03:00 +14°C° 0 mm 1 mps 748 mmHg 81%
    04:00 +14°C° 0 mm 1 mps 747 mmHg 79%
    05:00 +15°C° 0 mm 1 mps 748 mmHg 76%
    06:00 +15°C° 0 mm 1 mps 748 mmHg 73%
    07:00 +16°C° 0 mm 1 mps 749 mmHg 68%
    08:00 +18°C° 0 mm 2 mps 749 mmHg 59%
    09:00 +20°C° 0 mm 3 mps 749 mmHg 51%
    10:00 +24°C° 0 mm 3 mps 749 mmHg 42%
    11:00 +23°C° 0 mm 4 mps 748 mmHg 42%
    12:00 +25°C° 0 mm 4 mps 748 mmHg 42%
    13:00 +26°C° 0 mm 4 mps 747 mmHg 42%
    14:00 +25°C° 0 mm 4 mps 747 mmHg 46%
    15:00 +23°C° 0 mm 4 mps 747 mmHg 50%
    16:00 +22°C° 0 mm 4 mps 747 mmHg 53%
    17:00 +20°C° 0 mm 3 mps 747 mmHg 61%
    18:00 +18°C° 0 mm 3 mps 748 mmHg 69%
    19:00 +16°C° 0 mm 1 mps 748 mmHg 80%
    20:00 +15°C° 0 mm 1 mps 748 mmHg 82%
    21:00 +15°C° 0 mm 1 mps 748 mmHg 84%
    22:00 +14°C° 0 mm 1 mps 748 mmHg 86%
    23:00 +14°C° 0 mm 1 mps 748 mmHg 87%

    Tomorrow, 7 December, Saturday

    Time Temperature Precipitation Wind Pressure Humidity
    00:00 +14°C° 0 mm 1 mps 748 mmHg 87%
    01:00 +13°C° 0 mm 1 mps 747 mmHg 88%
    02:00 +13°C° 0 mm 1 mps 747 mmHg 88%
    03:00 +13°C° 0 mm 1 mps 747 mmHg 89%
    04:00 +13°C° 0 mm 1 mps 747 mmHg 89%
    05:00 +13°C° 0 mm 1 mps 748 mmHg 87%
    06:00 +14°C° 0 mm 1 mps 748 mmHg 84%
    07:00 +14°C° 0 mm 1 mps 749 mmHg 82%
    08:00 +18°C° 0 mm 1 mps 749 mmHg 71%
    09:00 +20°C° 0 mm 2 mps 749 mmHg 60%
    10:00 +24°C° 0 mm 2 mps 749 mmHg 50%
    11:00 +25°C° 0 mm 3 mps 748 mmHg 48%
    12:00 +25°C° 0 mm 3 mps 747 mmHg 46%
    13:00 +26°C° 0 mm 3 mps 747 mmHg 44%
    14:00 +25°C° 0 mm 3 mps 747 mmHg 47%
    15:00 +24°C° 0 mm 3 mps 746 mmHg 49%
    16:00 +22°C° 0 mm 3 mps 746 mmHg 52%
    17:00 +20°C° 0 mm 3 mps 747 mmHg 61%
    18:00 +18°C° 0 mm 2 mps 747 mmHg 69%
    19:00 +16°C° 0 mm 2 mps 747 mmHg 77%
    20:00 +15°C° 0 mm 1 mps 748 mmHg 81%
    21:00 +14°C° 0 mm 1 mps 748 mmHg 84%
    22:00 +14°C° 0 mm 1 mps 748 mmHg 88%
    23:00 +13°C° 0 mm 1 mps 748 mmHg 89%

    Day after tomorrow, 8 December, Sunday

    Time Temperature Precipitation Wind Pressure Humidity
    00:00 +13°C° 0 mm 1 mps 748 mmHg 90%
    01:00 +13°C° 0 mm 1 mps 747 mmHg 91%
    02:00 +13°C° 0 mm 1 mps 747 mmHg 90%
    03:00 +12°C° 0 mm 1 mps 747 mmHg 90%
    04:00 +12°C° 0 mm 1 mps 747 mmHg 89%
    05:00 +13°C° 0 mm 1 mps 747 mmHg 86%
    06:00 +13°C° 0 mm 1 mps 748 mmHg 83%
    07:00 +13°C° 0 mm 1 mps 748 mmHg 80%
    08:00 +16°C° 0 mm 1 mps 748 mmHg 69%
    09:00 +21°C° 0 mm 1 mps 748 mmHg 58%
    10:00 +24°C° 0 mm 2 mps 748 mmHg 47%
    11:00 +25°C° 0 mm 2 mps 748 mmHg 46%
    12:00 +26°C° 0 mm 2 mps 747 mmHg 44%
    13:00 +27°C° 0 mm 3 mps 746 mmHg 42%
    14:00 +26°C° 0 mm 3 mps 746 mmHg 45%
    15:00 +25°C° 0 mm 3 mps 746 mmHg 48%
    16:00 +25°C° 0 mm 3 mps 745 mmHg 51%
    17:00 +21°C° 0 mm 2 mps 746 mmHg 60%
    18:00 +18°C° 0 mm 2 mps 746 mmHg 68%
    19:00 +16°C° 0 mm 2 mps 747 mmHg 77%
    20:00 +15°C° 0 mm 1 mps 747 mmHg 80%
    21:00 +14°C° 0 mm 1 mps 747 mmHg 83%
    22:00 +14°C° 0 mm 1 mps 748 mmHg 86%
    23:00 +13°C° 0 mm 1 mps 748 mmHg 87%

    9 December, Monday

    Time Temperature Precipitation Wind Pressure Humidity
    00:00 +13°C° 0 mm 1 mps 747 mmHg 89%
    01:00 +13°C° 0 mm 1 mps 747 mmHg 90%
    02:00 +12°C° 0 mm 1 mps 747 mmHg 91%
    03:00 +12°C° 0 mm 1 mps 747 mmHg 92%
    04:00 +12°C° 0 mm 1 mps 746 mmHg 93%
    05:00 +13°C° 0 mm 1 mps 747 mmHg 91%
    06:00 +13°C° 0 mm 1 mps 747 mmHg 88%
    07:00 +14°C° 0 mm 1 mps 747 mmHg 86%
    08:00 +18°C° 0 mm 1 mps 748 mmHg 74%
    09:00 +21°C° 0 mm 1 mps 748 mmHg 62%
    10:00 +25°C° 0 mm 1 mps 748 mmHg 50%
    11:00 +26°C° 0 mm 1 mps 747 mmHg 47%
    12:00 +27°C° 0 mm 2 mps 746 mmHg 43%
    13:00 +28°C° 0 mm 2 mps 745 mmHg 40%
    14:00 +27°C° 0 mm 2 mps 745 mmHg 44%
    15:00 +27°C° 0 mm 2 mps 744 mmHg 47%
    16:00 +26°C° 0 mm 2 mps 744 mmHg 51%
    17:00 +23°C° 0 mm 2 mps 744 mmHg 61%
    18:00 +19°C° 0 mm 2 mps 745 mmHg 72%
    19:00 +18°C° 0 mm 1 mps 745 mmHg 83%
    20:00 +16°C° 0 mm 1 mps 745 mmHg 87%
    21:00 +15°C° 0 mm 1 mps 746 mmHg 90%
    22:00 +14°C° 0 mm 1 mps 746 mmHg 94%
    23:00 +14°C° 0 mm 1 mps 746 mmHg 94%

    10 December, Tuesday

    Time Temperature Precipitation Wind Pressure Humidity
    00:00 +14°C° 0 mm 1 mps 746 mmHg 94%
    01:00 +14°C° 0 mm 1 mps 745 mmHg 95%
    02:00 +13°C° 0 mm 1 mps 745 mmHg 95%
    03:00 +13°C° 0 mm 1 mps 745 mmHg 95%
    04:00 +13°C° 0 mm 1 mps 745 mmHg 95%
    05:00 +14°C° 0 mm 1 mps 745 mmHg 93%
    06:00 +14°C° 0 mm 1 mps 745 mmHg 90%
    07:00 +14°C° 0 mm 1 mps 745 mmHg 88%
    08:00 +19°C° 0 mm 1 mps 746 mmHg 76%
    09:00 +22°C° 0 mm 1 mps 746 mmHg 64%
    10:00 +25°C° 0 mm 1 mps 746 mmHg 52%
    11:00 +27°C° 0 mm 1 mps 745 mmHg 48%
    12:00 +28°C° 0 mm 1 mps 745 mmHg 44%
    13:00 +30°C° 0 mm 1 mps 744 mmHg 39%
    14:00 +29°C° 0 mm 1 mps 744 mmHg 42%
    15:00 +28°C° 0 mm 1 mps 743 mmHg 45%
    16:00 +28°C° 0 mm 1 mps 743 mmHg 47%
    17:00 +25°C° 0 mm 1 mps 743 mmHg 57%
    18:00 +22°C° 0 mm 1 mps 743 mmHg 67%
    19:00 +20°C° 0 mm 1 mps 744 mmHg 76%
    20:00 +19°C° 0 mm 1 mps 744 mmHg 81%
    21:00 +18°C° 0 mm 1 mps 744 mmHg 86%
    22:00 +16°C° 0 mm 1 mps 745 mmHg 91%
    23:00 +15°C° 0 mm 1 mps 745 mmHg 92%

    11 December, Wednesday

    Time Temperature Precipitation Wind Pressure Humidity
    00:00 +15°C° 0 mm 1 mps 744 mmHg 93%
    01:00 +15°C° 0 mm 1 mps 744 mmHg 95%
    02:00 +15°C° 0 mm 1 mps 744 mmHg 95%
    03:00 +14°C° 0 mm 1 mps 744 mmHg 95%
    04:00 +14°C° 0 mm 1 mps 744 mmHg 95%
    05:00 +15°C° 0 mm 1 mps 744 mmHg 93%
    06:00 +15°C° 0 mm 1 mps 745 mmHg 91%
    07:00 +15°C° 0 mm 1 mps 745 mmHg 89%
    08:00 +20°C° 0 mm 1 mps 745 mmHg 77%
    09:00 +23°C° 0 mm 1 mps 745 mmHg 64%
    10:00 +26°C° 0 mm 1 mps 746 mmHg 51%
    11:00 +27°C° 0 mm 1 mps 745 mmHg 47%
    12:00 +29°C° 0 mm 1 mps 744 mmHg 43%
    13:00 +30°C° 0 mm 1 mps 744 mmHg 39%
    14:00 +30°C° 0 mm 1 mps 744 mmHg 41%
    15:00 +29°C° 0 mm 2 mps 743 mmHg 44%
    16:00 +28°C° 0 mm 2 mps 743 mmHg 47%
    17:00 +25°C° 0 mm 2 mps 743 mmHg 58%
    18:00 +22°C° 0 mm 1 mps 744 mmHg 70%
    19:00 +19°C° 0 mm 1 mps 744 mmHg 81%
    20:00 +19°C° 0 mm 1 mps 744 mmHg 85%
    21:00 +18°C° 0 mm 1 mps 745 mmHg 89%
    22:00 +16°C° 0 mm 1 mps 745 mmHg 93%
    23:00 +16°C° 0 mm 1 mps 745 mmHg 94%
    Show more